CW6353 Weather Reports


Display with metric or nautical units.
time (UTC)temp
F
wind
direction
speed
MPH
gust
MPH
rain 1hr
in
rain 24hr
in
rain mn
in
humidity
%
barometer
mb
20260831191516 91 360 4.0 8.0 0.00 0.00 0.00 55 1019.1
20260831191014 91 345 3.0 8.0 0.00 0.00 0.00 52 1019.1
20260831190513 92 126 3.0 10.0 0.00 0.00 0.00 51 1019.2
20260831190014 92 118 4.0 10.0 0.00 0.00 0.00 50 1019.2
20260831185514 92 92 6.0 9.0 0.00 0.00 0.00 50 1019.2
20260831185014 92 169 4.0 9.0 0.00 0.00 0.00 51 1019.3
20260831184508 91 134 5.0 12.0 0.00 0.00 0.00 48 1019.4
20260831184004 92 117 9.0 12.0 0.00 0.00 0.00 47 1019.5
20260831183504 92 129 3.0 12.0 0.00 0.00 0.00 50 1019.5
20260831183014 92 131 5.0 11.0 0.00 0.00 0.00 51 1019.6
20260831182510 92 132 3.0 11.0 0.00 0.00 0.00 51 1019.7
20260831182008 91 177 3.0 11.0 0.00 0.00 0.00 51 1019.8
20260831181519 91 124 5.0 11.0 0.00 0.00 0.00 52 1019.8
20260831181011 90 105 3.0 7.0 0.00 0.00 0.00 54 1020.1
20260831180505 90 42 2.0 7.0 0.00 0.00 0.00 59 1020.1
20260831180033 90 68 2.0 6.0 0.00 0.00 0.00 55 1020.1
20260831175511 89 80 2.0 8.0 0.00 0.00 0.00 56 1020.1
20260831175012 89 96 2.0 8.0 0.00 0.00 0.00 56 1020.1
20260831174527 90 191 2.0 9.0 0.00 0.00 0.00 55 1020.1
20260831174011 90 71 3.0 9.0 0.00 0.00 0.00 56 1020.1
20260831173516 90 155 4.0 9.0 0.00 0.00 0.00 54 1020.2
20260831173023 90 107 6.0 8.0 0.00 0.00 0.00 53 1020.1
20260831172507 90 142 1.0 8.0 0.00 0.00 0.00 57 1020.2
20260831172006 89 171 1.0 8.0 0.00 0.00 0.00 56 1020.3
20260831171516 89 122 4.0 8.0 0.00 0.00 0.00 54 1020.5
20260831171009 89 134 3.0 10.0 0.00 0.00 0.00 55 1020.6
20260831170509 89 75 6.0 10.0 0.00 0.00 0.00 53 1020.6
20260831170026 90 58 3.0 8.0 0.00 0.00 0.00 56 1020.6
20260831165514 90 188 2.0 8.0 0.00 0.00 0.00 54 1020.7
20260831165013 90 186 1.0 7.0 0.00 0.00 0.00 57 1020.7
20260831164512 90 12 3.0 9.0 0.00 0.00 0.00 55 1020.8
20260831164019 90 49 3.0 9.0 0.00 0.00 0.00 60 1020.9
20260831163512 90 119 3.0 8.0 0.00 0.00 0.00 60 1020.9
20260831163031 89 223 1.0 8.0 0.00 0.00 0.00 61 1020.9
20260831162514 89 78 4.0 9.0 0.00 0.00 0.00 61 1021.1
20260831162011 89 89 4.0 12.0 0.00 0.00 0.00 61 1021.1
20260831161533 88 124 5.0 12.0 0.00 0.00 0.00 60 1021.2
20260831161006 88 84 7.0 10.0 0.00 0.00 0.00 61 1021.1
20260831160509 88 119 6.0 10.0 0.00 0.00 0.00 62 1021.1
20260831160037 88 99 5.0 10.0 0.00 0.00 0.00 59 1021.1
20260831155512 88 71 3.0 9.0 0.00 0.00 0.00 62 1021.1
20260831155012 87 169 3.0 9.0 0.00 0.00 0.00 63 1021.1
20260831154550 87 84 6.0 8.0 0.00 0.00 0.00 63 1021.1
20260831154008 87 118 4.0 9.0 0.00 0.00 0.00 65 1021.1
20260831153516 86 177 4.0 10.0 0.00 0.00 0.00 66 1021.3
20260831153051 86 134 4.0 10.0 0.00 0.00 0.00 66 1021.3
20260831152509 86 184 4.0 8.0 0.00 0.00 0.00 65 1021.3
20260831152020 85 200 2.0 10.0 0.00 0.00 0.00 70 1021.3
20260831151526 85 74 3.0 10.0 0.00 0.00 0.00 69 1021.4
20260831151002 85 109 2.0 8.0 0.00 0.00 0.00 70 1021.3
20260831150502 85 180 3.0 8.0 0.00 0.00 0.00 68 1021.2
20260831150004 85 63 4.0 7.0 0.00 0.00 0.00 68 1021.2
20260831145503 85 96 3.0 5.0 0.00 0.00 0.00 69 1021.3
20260831145003 85 225 3.0 6.0 0.00 0.00 0.00 70 1021.3
20260831144503 84 124 3.0 6.0 0.00 0.00 0.00 71 1021.2
20260831144003 84 220 1.0 4.0 0.00 0.00 0.00 71 1021.3
20260831143503 84 88 2.0 8.0 0.00 0.00 0.00 71 1021.3
20260831143007 83 100 3.0 8.0 0.00 0.00 0.00 71 1021.3
20260831142507 83 126 2.0 6.0 0.00 0.00 0.00 72 1021.3
20260831142003 83 115 2.0 7.0 0.00 0.00 0.00 73 1021.2
20260831141518 82 242 2.0 7.0 0.00 0.00 0.00 74 1021.1
20260831141003 82 163 3.0 7.0 0.00 0.00 0.00 75 1021.3
20260831140502 82 106 3.0 7.0 0.00 0.00 0.00 75 1021.3
20260831140010 82 139 4.0 7.0 0.00 0.00 0.00 76 1021.3
20260831135502 81 60 3.0 5.0 0.00 0.00 0.00 78 1021.2
20260831135003 81 112 3.0 5.0 0.00 0.00 0.00 78 1021.2
20260831134505 80 54 1.0 6.0 0.00 0.00 0.00 81 1021.1
20260831134002 80 97 3.0 8.0 0.00 0.00 0.00 80 1021.1
20260831133502 80 115 3.0 8.0 0.00 0.00 0.00 80 1021.2
20260831133003 79 86 1.0 8.0 0.00 0.00 0.00 83 1021.2
20260831132504 79 165 3.0 7.0 0.00 0.00 0.00 82 1021.1
20260831132003 78 104 3.0 7.0 0.00 0.00 0.00 82 1021.0
20260831131509 78 118 3.0 7.0 0.00 0.00 0.00 81 1021.0
20260831131006 78 136 0.0 5.0 0.00 0.00 0.00 83 1020.9
20260831130505 78 227 1.0 5.0 0.00 0.00 0.00 83 1020.8
20260831130004 77 148 2.0 5.0 0.00 0.00 0.00 85 1020.9
20260831125511 77 339 0.0 2.0 0.00 0.00 0.00 84 1020.8
20260831125003 76 344 1.0 4.0 0.00 0.00 0.00 85 1020.9
20260831124503 76 94 0.0 4.0 0.00 0.00 0.00 86 1020.7
20260831124004 75 171 1.0 7.0 0.00 0.00 0.00 87 1020.6
20260831123502 74 183 2.0 7.0 0.00 0.00 0.00 87 1020.4
20260831123005 74 137 1.0 4.0 0.00 0.00 0.00 89 1020.5
20260831122504 73 125 2.0 4.0 0.00 0.00 0.00 91 1020.5
20260831122004 73 141 1.0 2.0 0.00 0.00 0.00 91 1020.4
20260831121517 72 145 0.0 3.0 0.00 0.00 0.00 91 1020.3
20260831121009 72 155 1.0 3.0 0.00 0.00 0.00 91 1020.3
20260831120504 71 134 0.0 2.0 0.00 0.00 0.00 91 1020.3
20260831120028 71 113 1.0 2.0 0.00 0.00 0.00 91 1020.2
20260831115504 71 126 0.0 2.0 0.00 0.00 0.00 91 1020.2
20260831115009 71 76 1.0 3.0 0.00 0.00 0.00 91 1020.3
20260831114517 71 116 2.0 4.0 0.00 0.00 0.00 91 1020.3
20260831114003 71 90 2.0 4.0 0.00 0.00 0.00 91 1020.1
20260831113514 71 73 2.0 3.0 0.00 0.00 0.00 91 1020.1
20260831113010 71 103 2.0 3.0 0.00 0.00 0.00 91 1020.1
20260831112502 71 110 2.0 3.0 0.00 0.00 0.00 91 1020.0
20260831112003 71 107 2.0 3.0 0.00 0.00 0.00 91 1019.8
20260831111506 71 114 2.0 3.0 0.00 0.00 0.00 91 1019.8
20260831111003 71 111 1.0 3.0 0.00 0.00 0.00 91 1019.8
20260831110503 71 109 2.0 3.0 0.00 0.00 0.00 91 1019.7
20260831110004 71 88 2.0 3.0 0.00 0.00 0.00 92 1019.6
20260831105504 71 104 2.0 4.0 0.00 0.00 0.00 92 1019.5
20260831105007 71 93 2.0 4.0 0.00 0.00 0.00 91 1019.4
20260831104529 71 117 2.0 3.0 0.00 0.00 0.00 91 1019.4
20260831104007 70 117 2.0 3.0 0.00 0.00 0.00 91 1019.4
20260831103504 70 133 2.0 3.0 0.00 0.00 0.00 91 1019.5
20260831103021 70 109 2.0 3.0 0.00 0.00 0.00 91 1019.5
20260831102507 70 99 1.0 3.0 0.00 0.00 0.00 91 1019.4
20260831102004 71 125 1.0 2.0 0.00 0.00 0.00 91 1019.4
20260831101529 71 125 2.0 2.0 0.00 0.00 0.00 91 1019.3
20260831101005 71 125 2.0 2.0 0.00 0.00 0.00 91 1019.5
20260831100504 71 125 2.0 2.0 0.00 0.00 0.00 91 1019.4
20260831100019 71 125 1.0 2.0 0.00 0.00 0.00 91 1019.4
20260831095503 70 125 1.0 2.0 0.00 0.00 0.00 91 1019.3
20260831095004 70 125 1.0 2.0 0.00 0.00 0.00 90 1019.3
20260831094512 70 125 1.0 3.0 0.00 0.00 0.00 91 1019.2
20260831094003 70 135 1.0 3.0 0.00 0.00 0.00 90 1019.2
20260831093507 70 125 2.0 2.0 0.00 0.00 0.00 90 1019.1
20260831093013 70 125 1.0 2.0 0.00 0.00 0.00 91 1019.2
20260831092508 70 125 1.0 2.0 0.00 0.00 0.00 90 1019.2
20260831092011 70 125 1.0 2.0 0.00 0.00 0.00 90 1019.1
20260831091506 70 119 0.0 2.0 0.00 0.00 0.00 90 1019.1
20260831091010 71 119 1.0 2.0 0.00 0.00 0.00 90 1019.1
20260831090506 71 121 1.0 2.0 0.00 0.00 0.00 90 1019.0
20260831090006 71 344 1.0 2.0 0.00 0.00 0.00 90 1018.9
20260831085513 71 114 0.0 3.0 0.00 0.00 0.00 90 1019.0
20260831085005 71 137 1.0 3.0 0.00 0.00 0.00 90 1018.9
20260831084508 71 159 1.0 3.0 0.00 0.00 0.00 90 1019.0
20260831084003 71 140 2.0 3.0 0.00 0.00 0.00 90 1019.0
20260831083505 71 146 1.0 3.0 0.00 0.00 0.00 89 1019.0
20260831083004 71 138 1.0 2.0 0.00 0.00 0.00 89 1018.8
20260831082502 71 120 1.0 3.0 0.00 0.00 0.00 89 1018.8
20260831082002 71 163 0.0 3.0 0.00 0.00 0.00 89 1018.7
20260831081502 71 161 1.0 2.0 0.00 0.00 0.00 89 1018.6
20260831081002 71 121 1.0 2.0 0.00 0.00 0.00 89 1018.7
20260831080503 71 148 1.0 2.0 0.00 0.00 0.00 89 1018.6
20260831080005 71 148 1.0 3.0 0.00 0.00 0.00 89 1018.7
20260831075504 71 150 1.0 3.0 0.00 0.00 0.00 89 1018.6
20260831075004 71 163 1.0 3.0 0.00 0.00 0.00 89 1018.6
20260831074503 71 144 0.0 2.0 0.00 0.00 0.00 89 1018.5
20260831074009 71 153 1.0 3.0 0.00 0.00 0.00 89 1018.3
20260831073505 71 158 1.0 4.0 0.00 0.00 0.00 88 1018.4
20260831073010 71 163 1.0 4.0 0.00 0.00 0.00 88 1018.4
20260831072503 72 158 1.0 2.0 0.00 0.00 0.00 88 1018.4
20260831072001 72 153 1.0 2.0 0.00 0.00 0.00 88 1018.5
20260831071503 72 164 0.0 3.0 0.00 0.00 0.00 88 1018.5
20260831071003 72 155 0.0 3.0 0.00 0.00 0.00 88 1018.5
20260831070504 72 165 0.0 2.0 0.00 0.00 0.00 87 1018.5
20260831070004 72 152 1.0 2.0 0.00 0.00 0.00 87 1018.5
20260831065504 72 168 0.0 2.0 0.00 0.00 0.00 87 1018.7
20260831065004 73 155 0.0 2.0 0.00 0.00 0.00 87 1018.8
20260831064505 73 155 0.0 2.0 0.00 0.00 0.00 87 1018.7
20260831064003 73 156 1.0 2.0 0.00 0.00 0.00 87 1018.8
20260831063507 73 151 0.0 4.0 0.00 0.00 0.00 86 1018.7
20260831063007 73 163 1.0 5.0 0.00 0.00 0.00 86 1018.7
20260831062503 73 126 2.0 5.0 0.00 0.00 0.00 86 1018.6
20260831062004 73 157 2.0 4.0 0.00 0.00 0.00 86 1018.7
20260831061503 73 148 1.0 3.0 0.00 0.00 0.00 86 1018.8
20260831061011 73 138 1.0 4.0 0.00 0.00 0.00 86 1018.8
20260831060504 73 173 2.0 4.0 0.00 0.00 0.00 85 1018.8
20260831060002 74 131 1.0 2.0 0.00 0.00 0.00 85 1018.9
20260831055502 74 149 1.0 3.0 0.00 0.00 0.00 85 1018.9
20260831055003 74 130 1.0 3.0 0.00 0.00 0.00 84 1018.9
20260831054504 74 149 1.0 3.0 0.00 0.00 0.00 84 1019.0
20260831054004 74 117 1.0 5.0 0.00 0.00 0.00 84 1019.0
20260831053504 74 156 2.0 5.0 0.00 0.00 0.00 84 1019.1
20260831053007 74 146 2.0 4.0 0.00 0.00 0.00 84 1019.0
20260831052505 75 154 1.0 4.0 0.00 0.00 0.00 83 1019.0
20260831052002 75 151 1.0 4.0 0.00 0.00 0.00 83 1019.1
20260831051527 75 162 1.0 4.0 0.00 0.00 0.00 83 1018.9
20260831051004 75 158 2.0 6.0 0.00 0.00 0.00 82 1019.0
20260831050501 75 157 2.0 6.0 0.00 0.00 0.00 83 1018.9
20260831050015 75 132 2.0 4.0 0.00 0.00 0.00 82 1019.1
20260831045502 75 159 1.0 4.0 0.00 0.00 0.00 83 1019.2
20260831045001 75 155 1.0 5.0 0.00 0.00 0.00 83 1019.1
20260831044504 75 156 1.0 5.0 0.00 0.00 0.00 83 1019.1
20260831044003 75 192 1.0 5.0 0.00 0.00 0.00 83 1019.1
20260831043502 75 122 2.0 5.0 0.00 0.00 0.00 83 1019.0
20260831043004 75 140 2.0 5.0 0.00 0.00 0.00 83 1018.9
20260831042502 75 159 2.0 4.0 0.00 0.00 0.00 84 1019.0
20260831042004 74 157 2.0 4.0 0.00 0.00 0.00 84 1019.1
20260831041504 74 126 2.0 4.0 0.00 0.00 0.00 84 1019.1
20260831041006 74 162 2.0 5.0 0.00 0.00 0.00 85 1019.0
20260831040506 74 119 4.0 5.0 0.00 0.00 0.00 85 1019.0
20260831040019 74 127 2.0 3.0 0.00 0.00 0.00 84 1019.0
20260831035507 74 143 1.0 2.0 0.00 0.00 0.00 84 1019.1
20260831035005 74 148 0.0 3.0 0.00 0.00 0.00 84 1019.0
20260831034503 74 133 2.0 3.0 0.00 0.00 0.00 84 1019.0
20260831034006 74 130 1.0 4.0 0.00 0.00 0.00 84 1018.9
20260831033503 74 140 1.0 4.0 0.00 0.00 0.00 84 1019.0
20260831033007 74 132 2.0 5.0 0.00 0.00 0.00 84 1019.0
20260831032504 74 111 1.0 5.0 0.00 0.00 0.00 83 1019.0
20260831032004 74 127 2.0 3.0 0.00 0.00 0.00 83 1018.9
20260831031507 74 145 1.0 3.0 0.00 0.00 0.00 83 1018.9
20260831031005 75 141 1.0 2.0 0.00 0.00 0.00 83 1019.0
20260831030509 75 113 1.0 2.0 0.00 0.00 0.00 82 1019.0
20260831030014 75 132 1.0 3.0 0.00 0.00 0.00 82 1019.0
20260831025505 75 127 1.0 3.0 0.00 0.00 0.00 82 1019.1
20260831025006 75 128 1.0 3.0 0.00 0.00 0.00 82 1019.2
20260831024514 75 113 1.0 3.0 0.00 0.00 0.00 81 1019.1
20260831024003 76 102 2.0 3.0 0.00 0.00 0.00 81 1019.1
20260831023512 76 109 2.0 3.0 0.00 0.00 0.00 80 1019.1
20260831023015 76 121 2.0 3.0 0.00 0.00 0.00 80 1019.1
20260831022517 76 98 1.0 2.0 0.00 0.00 0.00 80 1019.1
20260831022010 76 118 1.0 3.0 0.00 0.00 0.00 79 1019.1
20260831021515 76 100 2.0 3.0 0.00 0.00 0.00 79 1019.1
20260831021004 77 121 1.0 3.0 0.00 0.00 0.00 78 1019.1
20260831020503 77 111 2.0 2.0 0.00 0.00 0.00 78 1019.0
20260831020005 77 111 1.0 3.0 0.00 0.00 0.00 78 1018.9
20260831015508 77 101 1.0 3.0 0.00 0.00 0.00 77 1018.9
20260831015008 78 120 2.0 3.0 0.00 0.00 0.00 76 1018.8
20260831014514 78 149 2.0 3.0 0.00 0.00 0.00 76 1018.8
20260831014008 78 107 2.0 4.0 0.00 0.00 0.00 76 1018.9
20260831013506 78 103 2.0 4.0 0.00 0.00 0.00 75 1018.9
20260831013018 78 109 2.0 4.0 0.00 0.00 0.00 75 1018.7
20260831012510 78 113 2.0 4.0 0.00 0.00 0.00 76 1018.7
20260831012004 78 116 2.0 4.0 0.00 0.00 0.00 76 1018.7
20260831011521 78 101 2.0 4.0 0.00 0.00 0.00 75 1018.6
20260831011004 78 107 2.0 4.0 0.00 0.00 0.00 76 1018.5
20260831010516 79 116 2.0 3.0 0.00 0.00 0.00 75 1018.7
20260831010015 79 84 2.0 3.0 0.00 0.00 0.00 74 1018.6
20260831005504 80 98 2.0 2.0 0.00 0.00 0.00 73 1018.4
20260831005009 80 96 1.0 3.0 0.00 0.00 0.00 73 1018.3
20260831004510 81 96 1.0 3.0 0.00 0.00 0.00 72 1018.3
20260831004004 81 97 2.0 3.0 0.00 0.00 0.00 70 1018.2
20260831003510 82 103 1.0 3.0 0.00 0.00 0.00 70 1018.1
20260831003009 82 96 2.0 4.0 0.00 0.00 0.00 68 1018.1
20260831002511 82 98 2.0 4.0 0.00 0.00 0.00 67 1018.1
20260831002014 82 115 2.0 6.0 0.00 0.00 0.00 66 1018.1
20260831001522 82 96 2.0 6.0 0.00 0.00 0.00 66 1018.0
20260831001016 82 101 3.0 6.0 0.00 0.00 0.00 66 1018.0
20260831000508 82 115 4.0 6.0 0.00 0.00 0.00 65 1017.9
20260831000007 83 97 2.0 4.0 0.00 0.00 0.00 66 1017.9
20260830235514 84 82 2.0 3.0 0.00 0.00 0.00 67 1017.8
20260830235006 84 109 2.0 3.0 0.00 0.00 0.00 66 1017.8
20260830234508 85 103 0.0 0.0 0.00 0.00 0.00 66 1017.9
20260830234006 86 127 0.0 0.0 0.00 0.00 0.00 64 1017.9
20260830233510 87 127 0.0 0.0 0.00 0.00 0.00 63 1017.8
20260830233016 88 221 0.0 0.0 0.00 0.00 0.00 61 1017.8
20260830232508 89 140 0.0 0.0 0.00 0.00 0.00 59 1017.7
20260830232005 89 138 0.0 1.0 0.00 0.00 0.00 57 1017.7
20260830231527 89 244 0.0 5.0 0.00 0.00 0.00 55 1017.7
20260830231010 89 148 1.0 8.0 0.00 0.00 0.00 55 1017.6
20260830230513 89 196 5.0 8.0 0.00 0.00 0.00 55 1017.7
20260830230023 89 159 4.0 8.0 0.00 0.00 0.00 54 1017.8
20260830225509 89 125 5.0 8.0 0.00 0.00 0.00 52 1017.7
20260830225017 89 100 2.0 7.0 0.00 0.00 0.00 57 1017.6
20260830224520 88 213 2.0 7.0 0.00 0.00 0.00 55 1017.6
20260830224019 88 138 2.0 7.0 0.00 0.00 0.00 60 1017.5
20260830223516 86 144 1.0 4.0 0.00 0.00 0.00 61 1017.5
20260830223017 86 113 0.0 6.0 0.00 0.00 0.00 62 1017.5
20260830222509 86 126 2.0 6.0 0.00 0.00 0.00 61 1017.6
20260830222009 87 121 1.0 6.0 0.00 0.00 0.00 59 1017.6
20260830221514 87 119 1.0 6.0 0.00 0.00 0.00 59 1017.7
20260830221008 88 113 1.0 3.0 0.00 0.00 0.00 57 1017.7
20260830220512 88 167 2.0 3.0 0.00 0.00 0.00 57 1017.7
20260830220005 88 149 1.0 5.0 0.00 0.00 0.00 54 1017.7
20260830215502 89 111 2.0 5.0 0.00 0.00 0.00 54 1017.8
20260830215002 89 150 2.0 8.0 0.00 0.00 0.00 53 1017.9
20260830214503 90 192 3.0 8.0 0.00 0.00 0.00 54 1017.9
20260830214003 90 94 3.0 8.0 0.00 0.00 0.00 52 1017.7
20260830213505 89 143 5.0 9.0 0.00 0.00 0.00 53 1017.8
20260830213002 89 165 4.0 10.0 0.00 0.00 0.00 55 1017.7
20260830212502 89 89 6.0 10.0 0.00 0.00 0.00 55 1017.7
20260830212002 89 96 2.0 7.0 0.00 0.00 0.00 54 1017.7
20260830211511 90 85 4.0 7.0 0.00 0.00 0.00 51 1017.8
20260830211003 91 117 2.0 8.0 0.00 0.00 0.00 52 1017.9
20260830210503 92 57 4.0 8.0 0.00 0.00 0.00 50 1017.8
20260830210008 92 146 4.0 10.0 0.00 0.00 0.00 48 1017.9
20260830205506 93 101 5.0 10.0 0.00 0.00 0.00 47 1018.0
20260830205004 92 183 2.0 7.0 0.00 0.00 0.00 50 1017.9
20260830204504 92 160 3.0 8.0 0.00 0.00 0.00 49 1018.0
20260830204007 92 134 2.0 8.0 0.00 0.00 0.00 49 1018.0
20260830203504 92 122 4.0 8.0 0.00 0.00 0.00 50 1018.1
20260830203009 92 169 3.0 8.0 0.00 0.00 0.00 49 1018.2
20260830202507 92 197 4.0 8.0 0.00 0.00 0.00 51 1018.3
20260830202004 91 100 3.0 10.0 0.00 0.00 0.00 54 1018.4
20260830201502 91 146 7.0 10.0 0.00 0.00 0.00 52 1018.5
20260830201002 90 68 4.0 9.0 0.00 0.00 0.00 52 1018.5
20260830200505 90 92 6.0 8.0 0.00 0.00 0.00 50 1018.5
20260830200003 90 37 2.0 10.0 0.00 0.00 0.00 52 1018.6
20260830195501 90 94 3.0 11.0 0.00 0.00 0.00 51 1018.7
20260830195003 92 138 6.0 11.0 0.00 0.00 0.00 50 1018.7
20260830194502 92 15 2.0 10.0 0.00 0.00 0.00 50 1018.7
20260830194002 93 209 3.0 10.0 0.00 0.00 0.00 48 1018.7
20260830193502 93 228 2.0 8.0 0.00 0.00 0.00 49 1018.7
20260830193003 93 186 2.0 9.0 0.00 0.00 0.00 50 1018.8
20260830192501 92 227 2.0 11.0 0.00 0.00 0.00 52 1018.9
20260830192001 92 146 5.0 11.0 0.00 0.00 0.00 52 1018.9